Вернуться в каталог

DELTA 1 DEB

АктивенPO
NORAD 26822·DEBRIS·🇺🇸 United States

Запущен Jun 12, 1975 с Vandenberg Space Force Base

Loading…

Ближайшие Пролёты (ближайшие 24 часа)

TLE

СвежийSource: Space-Track

Эпоха: Sep 13, 2026, 17:21 UTC

1 26822U 75052KC  26256.72312870 -.00000099  00000-0 -20458-3 0  9992
2 26822  99.7141 343.4130 0310324 314.0582 200.4080 12.83910263640927

Отслеживайте DELTA 1 DEB в реальном времени с AllMySat

Download on the App Store